This is the latest recevied weather packets stored in our database for station/object NEWPRT. If no packets are shown the sender has not sent any weather packets the latest 10 day(s).
| Time | Temp. | Humidity | Pressure | Rain* | Wind** | Luminosity | Snow |
|---|---|---|---|---|---|---|---|
| 1778172830 | - | 53% | 1021.7 hPa | 0 mm | - | - | - |
| 1778172507 | - | 55% | 1021.7 hPa | 0 mm | - | - | - |
| 1778172184 | - | 55% | 1021.6 hPa | 0 mm | - | - | - |
| 1778171861 | - | 54% | 1021.9 hPa | 0 mm | - | - | - |
| 1778171538 | - | 54% | 1021.7 hPa | 0 mm | - | - | - |
| 1778171215 | - | 53% | 1021.7 hPa | 0 mm | - | - | - |
| 1778170892 | - | 55% | 1021.6 hPa | 0 mm | - | - | - |
| 1778170569 | - | 57% | 1021.8 hPa | 0 mm | - | - | - |
| 1778170246 | - | 57% | 1021.8 hPa | 0 mm | - | - | - |
| 1778169923 | - | 58% | 1021.5 hPa | 0 mm | - | - | - |
| 1778169600 | - | 61% | 1021.6 hPa | 0 mm | - | - | - |
| 1778169277 | - | 57% | 1021.6 hPa | 0 mm | - | - | - |
| 1778168954 | - | 57% | 1021.7 hPa | 0 mm | - | - | - |
| 1778168631 | - | 57% | 1021.5 hPa | 0 mm | - | - | - |
| 1778168308 | - | 60% | 1021.5 hPa | 0 mm | - | - | - |
| 1778167985 | - | 59% | 1021.6 hPa | 0 mm | - | - | - |
| 1778167662 | - | 61% | 1021.8 hPa | 0 mm | - | - | - |
| 1778167339 | - | 59% | 1021.6 hPa | 0 mm | - | - | - |
| 1778167016 | - | 61% | 1021.6 hPa | 0 mm | - | - | - |
| 1778166693 | - | 59% | 1021.6 hPa | 0 mm | - | - | - |
| 1778166370 | - | 60% | 1021.6 hPa | 0 mm | - | - | - |
| 1778166047 | - | 62% | 1021.5 hPa | 0 mm | - | - | - |
| 1778165724 | - | 61% | 1021.4 hPa | 0 mm | - | - | - |
| 1778165401 | - | 63% | 1021.6 hPa | 0 mm | - | - | - |
| 1778165078 | - | 62% | 1021.6 hPa | 0 mm | - | - | - |
* Rain latest hour (hover to see other rain measurements)
** Current wind speed in m/s (hover to see current wind gust speed)